contact:dominique.lefevre@mio.osupytheas.fr, maurice.libes@osupytheas.fr, didier.mallarino@osupytheas.fr
Project:EMSO http://www.emso-fr.org/EMSO-France
Depth: 2436.0 m
Title:EMSO Ligure Ouest : Data MII capteur MICROCAT
DateTime_Computer,Latitude,Longitude,Temperature,Conductivity,Pressure,DateTime_Instrument
DateTime_Computer,Latitude,Longitude,degC,S m-1,dbar,DateTime_Instrument
2023-08-03T00:02:26Z,42.805,6.029,13.3071,4.60111,2470.684,2023-8-03T02:04:44Z
2023-08-03T00:05:29Z,42.805,6.029,13.3084,4.60113,2470.693,2023-8-03T02:07:47Z
2023-08-03T00:08:32Z,42.805,6.029,13.3090,4.60119,2470.684,2023-8-03T02:10:50Z
2023-08-03T00:11:35Z,42.805,6.029,13.3078,4.60127,2470.707,2023-8-03T02:13:54Z
2023-08-03T00:14:38Z,42.805,6.029,13.3074,4.60135,2470.707,2023-8-03T02:16:57Z
2023-08-03T00:17:41Z,42.805,6.029,13.3082,4.60143,2470.67,2023-8-03T02:20:00Z
2023-08-03T00:20:45Z,42.805,6.029,13.3083,4.60119,2470.707,2023-8-03T02:23:03Z
2023-08-03T00:23:48Z,42.805,6.029,13.3091,4.60114,2470.646,2023-8-03T02:26:06Z
2023-08-03T00:26:51Z,42.805,6.029,13.3118,4.60105,2470.693,2023-8-03T02:29:09Z
2023-08-03T00:29:54Z,42.805,6.029,13.3113,4.60117,2470.661,2023-8-03T02:32:12Z
2023-08-03T00:32:57Z,42.805,6.029,13.3063,4.60141,2470.67,2023-8-03T02:35:15Z
2023-08-03T00:36:00Z,42.805,6.029,13.3089,4.60135,2470.646,2023-8-03T02:38:18Z
2023-08-03T00:39:03Z,42.805,6.029,13.3078,4.60160,2470.624,2023-8-03T02:41:21Z
2023-08-03T00:42:06Z,42.805,6.029,13.3081,4.60142,2470.646,2023-8-03T02:44:24Z
2023-08-03T00:45:09Z,42.805,6.029,13.3079,4.60122,2470.646,2023-8-03T02:47:27Z
2023-08-03T00:48:12Z,42.805,6.029,13.3077,4.60117,2470.646,2023-8-03T02:50:30Z
2023-08-03T00:51:15Z,42.805,6.029,13.3092,4.60122,2470.646,2023-8-03T02:53:34Z
2023-08-03T00:54:18Z,42.805,6.029,13.3067,4.60117,2470.646,2023-8-03T02:56:37Z
2023-08-03T00:57:21Z,42.805,6.029,13.3051,4.60141,2470.646,2023-8-03T02:59:40Z
2023-08-03T01:00:25Z,42.805,6.029,13.3054,4.60170,2470.624,2023-8-03T03:02:43Z
2023-08-03T01:03:28Z,42.805,6.029,13.3076,4.60148,2470.637,2023-8-03T03:05:46Z
2023-08-03T01:06:31Z,42.805,6.029,13.3085,4.60160,2470.6,2023-8-03T03:08:49Z
2023-08-03T01:09:34Z,42.805,6.029,13.3066,4.60179,2470.614,2023-8-03T03:11:52Z
2023-08-03T01:12:37Z,42.805,6.029,13.3096,4.60134,2470.624,2023-8-03T03:14:55Z
2023-08-03T01:15:40Z,42.805,6.029,13.3075,4.60127,2470.646,2023-8-03T03:17:58Z
2023-08-03T01:18:43Z,42.805,6.029,13.3081,4.60155,2470.624,2023-8-03T03:21:01Z
2023-08-03T01:21:46Z,42.805,6.029,13.3055,4.60176,2470.6,2023-8-03T03:24:04Z
2023-08-03T01:24:49Z,42.805,6.029,13.3082,4.60193,2470.6,2023-8-03T03:27:08Z
2023-08-03T01:27:52Z,42.805,6.029,13.3076,4.60167,2470.637,2023-8-03T03:30:11Z
2023-08-03T01:30:55Z,42.805,6.029,13.3093,4.60159,2470.637,2023-8-03T03:33:14Z
2023-08-03T01:33:59Z,42.805,6.029,13.3072,4.60169,2470.614,2023-8-03T03:36:17Z
2023-08-03T01:37:02Z,42.805,6.029,13.3040,4.60125,2470.637,2023-8-03T03:39:20Z
2023-08-03T01:40:05Z,42.805,6.029,13.3048,4.60128,2470.591,2023-8-03T03:42:23Z
2023-08-03T01:43:08Z,42.805,6.029,13.3056,4.60134,2470.577,2023-8-03T03:45:26Z
2023-08-03T01:46:11Z,42.805,6.029,13.3046,4.60144,2470.614,2023-8-03T03:48:29Z
2023-08-03T01:49:14Z,42.805,6.029,13.3052,4.60166,2470.624,2023-8-03T03:51:32Z
2023-08-03T01:52:17Z,42.805,6.029,13.3045,4.60122,2470.6,2023-8-03T03:54:35Z
2023-08-03T01:55:20Z,42.805,6.029,13.3043,4.60180,2470.577,2023-8-03T03:57:38Z
2023-08-03T01:58:23Z,42.805,6.029,13.3048,4.60175,2470.577,2023-8-03T04:00:41Z
2023-08-03T02:01:26Z,42.805,6.029,13.3044,4.60180,2470.591,2023-8-03T04:03:45Z
2023-08-03T02:04:29Z,42.805,6.029,13.3040,4.60180,2470.6,2023-8-03T04:06:48Z
2023-08-03T02:07:32Z,42.805,6.029,13.3041,4.60165,2470.651,2023-8-03T04:09:51Z
2023-08-03T02:10:35Z,42.805,6.029,13.3051,4.60169,2470.614,2023-8-03T04:12:54Z
2023-08-03T02:13:39Z,42.805,6.029,13.3043,4.60193,2470.577,2023-8-03T04:15:57Z
2023-08-03T02:16:42Z,42.805,6.029,13.3052,4.60185,2470.591,2023-8-03T04:19:00Z
2023-08-03T02:19:45Z,42.805,6.029,13.3056,4.60227,2470.553,2023-8-03T04:22:03Z
2023-08-03T02:22:48Z,42.805,6.029,13.3043,4.60149,2470.577,2023-8-03T04:25:06Z
2023-08-03T02:25:51Z,42.805,6.029,13.3043,4.60187,2470.591,2023-8-03T04:28:09Z
2023-08-03T02:28:54Z,42.805,6.029,13.3048,4.60174,2470.614,2023-8-03T04:31:12Z
2023-08-03T02:31:57Z,42.805,6.029,13.3054,4.60174,2470.577,2023-8-03T04:34:15Z
2023-08-03T02:35:00Z,42.805,6.029,13.3062,4.60190,2470.553,2023-8-03T04:37:18Z
2023-08-03T02:38:03Z,42.805,6.029,13.3047,4.60200,2470.567,2023-8-03T04:40:21Z
2023-08-03T02:41:06Z,42.805,6.029,13.3046,4.60162,2470.577,2023-8-03T04:43:24Z
2023-08-03T02:44:09Z,42.805,6.029,13.3054,4.60220,2470.577,2023-8-03T04:46:28Z
2023-08-03T02:47:12Z,42.805,6.029,13.3060,4.60150,2470.567,2023-8-03T04:49:31Z
2023-08-03T02:50:15Z,42.805,6.029,13.3082,4.60140,2470.567,2023-8-03T04:52:34Z
2023-08-03T02:53:18Z,42.805,6.029,13.3073,4.60142,2470.567,2023-8-03T04:55:37Z
2023-08-03T02:56:22Z,42.805,6.029,13.3080,4.60153,2470.591,2023-8-03T04:58:40Z
2023-08-03T02:59:25Z,42.805,6.029,13.3084,4.60149,2470.614,2023-8-03T05:01:43Z
2023-08-03T03:02:28Z,42.805,6.029,13.3062,4.60144,2470.53,2023-8-03T05:04:46Z
2023-08-03T03:05:31Z,42.805,6.029,13.3063,4.60162,2470.591,2023-8-03T05:07:49Z
2023-08-03T03:08:34Z,42.805,6.029,13.3047,4.60161,2470.567,2023-8-03T05:10:52Z
2023-08-03T03:11:37Z,42.805,6.029,13.3048,4.60181,2470.553,2023-8-03T05:13:55Z
2023-08-03T03:14:40Z,42.805,6.029,13.3067,4.60152,2470.567,2023-8-03T05:16:58Z
2023-08-03T03:17:43Z,42.805,6.029,13.3066,4.60207,2470.553,2023-8-03T05:20:01Z
2023-08-03T03:20:46Z,42.805,6.029,13.3045,4.60195,2470.577,2023-8-03T05:23:04Z
2023-08-03T03:23:49Z,42.805,6.029,13.3061,4.60180,2470.577,2023-8-03T05:26:08Z
2023-08-03T03:26:52Z,42.805,6.029,13.3049,4.60170,2470.577,2023-8-03T05:29:11Z
2023-08-03T03:29:55Z,42.805,6.029,13.3077,4.60175,2470.553,2023-8-03T05:32:14Z
2023-08-03T03:32:58Z,42.805,6.029,13.3041,4.60170,2470.567,2023-8-03T05:35:17Z
2023-08-03T03:36:02Z,42.805,6.029,13.3076,4.60173,2470.567,2023-8-03T05:38:20Z
2023-08-03T03:39:05Z,42.805,6.029,13.3045,4.60142,2470.577,2023-8-03T05:41:23Z
2023-08-03T03:42:08Z,42.805,6.029,13.3069,4.60164,2470.591,2023-8-03T05:44:26Z
2023-08-03T03:45:11Z,42.805,6.029,13.3081,4.60142,2470.6,2023-8-03T05:47:29Z
2023-08-03T03:48:14Z,42.805,6.029,13.3082,4.60146,2470.591,2023-8-03T05:50:32Z
2023-08-03T03:51:17Z,42.805,6.029,13.3074,4.60179,2470.577,2023-8-03T05:53:35Z
2023-08-03T03:54:20Z,42.805,6.029,13.3073,4.60167,2470.614,2023-8-03T05:56:38Z
2023-08-03T03:57:23Z,42.805,6.029,13.3056,4.60221,2470.591,2023-8-03T05:59:41Z
2023-08-03T04:00:26Z,42.805,6.029,13.3055,4.60228,2470.614,2023-8-03T06:02:44Z
2023-08-03T04:03:29Z,42.805,6.029,13.3069,4.60185,2470.6,2023-8-03T06:05:47Z
2023-08-03T04:06:32Z,42.805,6.029,13.3068,4.60165,2470.577,2023-8-03T06:08:51Z
2023-08-03T04:09:35Z,42.805,6.029,13.3093,4.60140,2470.6,2023-8-03T06:11:54Z
2023-08-03T04:12:38Z,42.805,6.029,13.3087,4.60150,2470.577,2023-8-03T06:14:57Z
2023-08-03T04:15:42Z,42.805,6.029,13.3075,4.60149,2470.614,2023-8-03T06:18:00Z
2023-08-03T04:18:45Z,42.805,6.029,13.3076,4.60172,2470.591,2023-8-03T06:21:03Z
2023-08-03T04:21:48Z,42.805,6.029,13.3083,4.60155,2470.637,2023-8-03T06:24:06Z
2023-08-03T04:24:51Z,42.805,6.029,13.3094,4.60121,2470.624,2023-8-03T06:27:09Z
2023-08-03T04:27:54Z,42.805,6.029,13.3100,4.60158,2470.6,2023-8-03T06:30:12Z
2023-08-03T04:30:57Z,42.805,6.029,13.3106,4.60164,2470.6,2023-8-03T06:33:15Z
2023-08-03T04:34:00Z,42.805,6.029,13.3095,4.60142,2470.614,2023-8-03T06:36:18Z
2023-08-03T04:37:03Z,42.805,6.029,13.3078,4.60143,2470.624,2023-8-03T06:39:21Z
2023-08-03T04:40:06Z,42.805,6.029,13.3090,4.60187,2470.614,2023-8-03T06:42:24Z
2023-08-03T04:43:09Z,42.805,6.029,13.3095,4.60139,2470.6,2023-8-03T06:45:27Z
2023-08-03T04:46:12Z,42.805,6.029,13.3084,4.60132,2470.614,2023-8-03T06:48:31Z
2023-08-03T04:49:15Z,42.805,6.029,13.3099,4.60147,2470.637,2023-8-03T06:51:34Z
2023-08-03T04:52:18Z,42.805,6.029,13.3085,4.60155,2470.661,2023-8-03T06:54:37Z
2023-08-03T04:55:21Z,42.805,6.029,13.3090,4.60143,2470.624,2023-8-03T06:57:40Z
2023-08-03T04:58:25Z,42.805,6.029,13.3093,4.60143,2470.637,2023-8-03T07:00:43Z
2023-08-03T05:01:28Z,42.805,6.029,13.3054,4.60147,2470.637,2023-8-03T07:03:46Z
2023-08-03T05:04:31Z,42.805,6.029,13.3093,4.60154,2470.646,2023-8-03T07:06:49Z
2023-08-03T05:07:34Z,42.805,6.029,13.3091,4.60157,2470.646,2023-8-03T07:09:52Z
2023-08-03T05:10:37Z,42.805,6.029,13.3096,4.60203,2470.577,2023-8-03T07:12:55Z
2023-08-03T05:13:40Z,42.805,6.029,13.3106,4.60162,2470.646,2023-8-03T07:15:58Z
2023-08-03T05:16:43Z,42.805,6.029,13.3104,4.60159,2470.624,2023-8-03T07:19:01Z
2023-08-03T05:19:46Z,42.805,6.029,13.3098,4.60137,2470.624,2023-8-03T07:22:04Z
2023-08-03T05:22:49Z,42.805,6.029,13.3107,4.60132,2470.661,2023-8-03T07:25:07Z
2023-08-03T05:25:52Z,42.805,6.029,13.3059,4.60196,2470.637,2023-8-03T07:28:11Z
2023-08-03T05:28:55Z,42.805,6.029,13.3086,4.60150,2470.646,2023-8-03T07:31:14Z
2023-08-03T05:31:58Z,42.805,6.029,13.3071,4.60188,2470.661,2023-8-03T07:34:17Z
2023-08-03T05:35:01Z,42.805,6.029,13.3095,4.60152,2470.67,2023-8-03T07:37:20Z
2023-08-03T05:38:05Z,42.805,6.029,13.3084,4.60140,2470.684,2023-8-03T07:40:23Z
2023-08-03T05:41:08Z,42.805,6.029,13.3087,4.60146,2470.661,2023-8-03T07:43:26Z
2023-08-03T05:44:11Z,42.805,6.029,13.3084,4.60163,2470.661,2023-8-03T07:46:29Z
2023-08-03T05:47:14Z,42.805,6.029,13.3096,4.60129,2470.646,2023-8-03T07:49:32Z
2023-08-03T05:50:17Z,42.805,6.029,13.3091,4.60152,2470.67,2023-8-03T07:52:35Z
2023-08-03T05:53:20Z,42.805,6.029,13.3063,4.60155,2470.684,2023-8-03T07:55:38Z
2023-08-03T05:56:23Z,42.805,6.029,13.3053,4.60152,2470.67,2023-8-03T07:58:41Z
2023-08-03T05:59:26Z,42.805,6.029,13.3073,4.60173,2470.707,2023-8-03T08:01:44Z
2023-08-03T06:02:29Z,42.805,6.029,13.3057,4.60165,2470.693,2023-8-03T08:04:47Z
2023-08-03T06:05:32Z,42.805,6.029,13.3078,4.60180,2470.661,2023-8-03T08:07:51Z
2023-08-03T06:08:35Z,42.805,6.029,13.3084,4.60149,2470.693,2023-8-03T08:10:54Z
2023-08-03T06:11:38Z,42.805,6.029,13.3087,4.60127,2470.67,2023-8-03T08:13:57Z
2023-08-03T06:14:41Z,42.805,6.029,13.3102,4.60165,2470.693,2023-8-03T08:17:00Z
2023-08-03T06:17:45Z,42.805,6.029,13.3076,4.60127,2470.67,2023-8-03T08:20:03Z
2023-08-03T06:20:48Z,42.805,6.029,13.3052,4.60131,2470.707,2023-8-03T08:23:06Z
2023-08-03T06:23:51Z,42.805,6.029,13.3041,4.60185,2470.684,2023-8-03T08:26:09Z
2023-08-03T06:26:54Z,42.805,6.029,13.3050,4.60192,2470.73,2023-8-03T08:29:12Z
2023-08-03T06:29:57Z,42.805,6.029,13.3044,4.60174,2470.684,2023-8-03T08:32:15Z
2023-08-03T06:33:00Z,42.805,6.029,13.3043,4.60213,2470.73,2023-8-03T08:35:18Z
2023-08-03T06:36:03Z,42.805,6.029,13.3041,4.60200,2470.693,2023-8-03T08:38:21Z
2023-08-03T06:39:06Z,42.805,6.029,13.3061,4.60210,2470.717,2023-8-03T08:41:24Z
2023-08-03T06:42:09Z,42.805,6.029,13.3073,4.60143,2470.73,2023-8-03T08:44:27Z
2023-08-03T06:45:12Z,42.805,6.029,13.3045,4.60208,2470.73,2023-8-03T08:47:30Z
2023-08-03T06:48:15Z,42.805,6.029,13.3042,4.60180,2470.67,2023-8-03T08:50:33Z
2023-08-03T06:51:18Z,42.805,6.029,13.3050,4.60214,2470.73,2023-8-03T08:53:37Z
2023-08-03T06:54:21Z,42.805,6.029,13.3051,4.60204,2470.717,2023-8-03T08:56:40Z
2023-08-03T06:57:24Z,42.805,6.029,13.3066,4.60211,2470.73,2023-8-03T08:59:43Z
2023-08-03T07:00:27Z,42.805,6.029,13.3059,4.60178,2470.717,2023-8-03T09:02:46Z
2023-08-03T07:03:31Z,42.805,6.029,13.3041,4.60161,2470.74,2023-8-03T09:05:49Z
2023-08-03T07:06:34Z,42.805,6.029,13.3046,4.60182,2470.763,2023-8-03T09:08:52Z
2023-08-03T07:09:37Z,42.805,6.029,13.3051,4.60183,2470.763,2023-8-03T09:11:55Z
2023-08-03T07:12:40Z,42.805,6.029,13.3050,4.60150,2470.763,2023-8-03T09:14:58Z
2023-08-03T07:15:43Z,42.805,6.029,13.3046,4.60141,2470.754,2023-8-03T09:18:01Z
2023-08-03T07:18:46Z,42.805,6.029,13.3045,4.60172,2470.763,2023-8-03T09:21:04Z
2023-08-03T07:21:49Z,42.805,6.029,13.3050,4.60146,2470.763,2023-8-03T09:24:07Z
2023-08-03T07:24:52Z,42.805,6.029,13.3047,4.60155,2470.74,2023-8-03T09:27:10Z
2023-08-03T07:27:55Z,42.805,6.029,13.3044,4.60157,2470.754,2023-8-03T09:30:13Z
2023-08-03T07:30:58Z,42.805,6.029,13.3046,4.60199,2470.754,2023-8-03T09:33:16Z
2023-08-03T07:34:01Z,42.805,6.029,13.3046,4.60180,2470.74,2023-8-03T09:36:20Z
2023-08-03T07:37:04Z,42.805,6.029,13.3048,4.60169,2470.74,2023-8-03T09:39:23Z
2023-08-03T07:40:07Z,42.805,6.029,13.3042,4.60164,2470.707,2023-8-03T09:42:26Z
2023-08-03T07:43:11Z,42.805,6.029,13.3043,4.60185,2470.693,2023-8-03T09:45:29Z
2023-08-03T07:46:14Z,42.805,6.029,13.3054,4.60160,2470.763,2023-8-03T09:48:32Z
2023-08-03T07:49:17Z,42.805,6.029,13.3048,4.60133,2470.73,2023-8-03T09:51:35Z
2023-08-03T07:52:20Z,42.805,6.029,13.3058,4.60146,2470.73,2023-8-03T09:54:38Z
2023-08-03T07:55:23Z,42.805,6.029,13.3043,4.60151,2470.74,2023-8-03T09:57:41Z
2023-08-03T07:58:26Z,42.805,6.029,13.3049,4.60156,2470.74,2023-8-03T10:00:44Z
2023-08-03T08:01:29Z,42.805,6.029,13.3066,4.60145,2470.777,2023-8-03T10:03:47Z
2023-08-03T08:04:32Z,42.805,6.029,13.3046,4.60152,2470.74,2023-8-03T10:06:50Z
2023-08-03T08:07:35Z,42.805,6.029,13.3048,4.60184,2470.73,2023-8-03T10:09:53Z
2023-08-03T08:10:38Z,42.805,6.029,13.3073,4.60157,2470.74,2023-8-03T10:12:56Z
2023-08-03T08:13:41Z,42.805,6.029,13.3045,4.60187,2470.717,2023-8-03T10:16:00Z
2023-08-03T08:16:44Z,42.805,6.029,13.3046,4.60170,2470.754,2023-8-03T10:19:03Z
2023-08-03T08:19:47Z,42.805,6.029,13.3059,4.60165,2470.763,2023-8-03T10:22:06Z
2023-08-03T08:22:51Z,42.805,6.029,13.3069,4.60142,2470.717,2023-8-03T10:25:09Z
2023-08-03T08:25:54Z,42.805,6.029,13.3039,4.60155,2470.777,2023-8-03T10:28:12Z
2023-08-03T08:28:57Z,42.805,6.029,13.3043,4.60178,2470.754,2023-8-03T10:31:15Z
2023-08-03T08:31:58Z,42.805,6.029,13.3057,4.60194,2470.74,2023-8-03T10:34:17Z
2023-08-03T08:35:01Z,42.805,6.029,13.3055,4.60173,2470.8,2023-8-03T10:37:20Z
2023-08-03T08:38:05Z,42.805,6.029,13.3043,4.60187,2470.74,2023-8-03T10:40:23Z
2023-08-03T08:41:08Z,42.805,6.029,13.3039,4.60168,2470.754,2023-8-03T10:43:26Z
2023-08-03T08:44:11Z,42.805,6.029,13.3041,4.60143,2470.73,2023-8-03T10:46:29Z
2023-08-03T08:47:14Z,42.805,6.029,13.3042,4.60152,2470.74,2023-8-03T10:49:32Z
2023-08-03T08:50:17Z,42.805,6.029,13.3048,4.60158,2470.754,2023-8-03T10:52:35Z
2023-08-03T08:53:20Z,42.805,6.029,13.3043,4.60174,2470.717,2023-8-03T10:55:38Z
2023-08-03T08:56:23Z,42.805,6.029,13.3046,4.60154,2470.74,2023-8-03T10:58:41Z
2023-08-03T08:59:26Z,42.805,6.029,13.3044,4.60169,2470.717,2023-8-03T11:01:44Z
2023-08-03T09:02:29Z,42.805,6.029,13.3049,4.60145,2470.707,2023-8-03T11:04:48Z
2023-08-03T09:05:32Z,42.805,6.029,13.3047,4.60135,2470.717,2023-8-03T11:07:51Z
2023-08-03T09:08:35Z,42.805,6.029,13.3052,4.60144,2470.693,2023-8-03T11:10:54Z
2023-08-03T09:11:38Z,42.805,6.029,13.3049,4.60178,2470.73,2023-8-03T11:13:57Z
2023-08-03T09:14:42Z,42.805,6.029,13.3046,4.60164,2470.73,2023-8-03T11:17:00Z
2023-08-03T09:17:45Z,42.805,6.029,13.3056,4.60172,2470.693,2023-8-03T11:20:03Z
2023-08-03T09:20:48Z,42.805,6.029,13.3043,4.60175,2470.74,2023-8-03T11:23:06Z
2023-08-03T09:23:51Z,42.805,6.029,13.3045,4.60161,2470.707,2023-8-03T11:26:09Z
2023-08-03T09:26:54Z,42.805,6.029,13.3040,4.60150,2470.754,2023-8-03T11:29:12Z
2023-08-03T09:29:57Z,42.805,6.029,13.3051,4.60142,2470.717,2023-8-03T11:32:15Z
2023-08-03T09:33:00Z,42.805,6.029,13.3052,4.60133,2470.707,2023-8-03T11:35:18Z
2023-08-03T09:36:03Z,42.805,6.029,13.3043,4.60151,2470.693,2023-8-03T11:38:21Z
2023-08-03T09:39:06Z,42.805,6.029,13.3049,4.60149,2470.763,2023-8-03T11:41:24Z
2023-08-03T09:42:09Z,42.805,6.029,13.3043,4.60150,2470.717,2023-8-03T11:44:28Z
2023-08-03T09:45:12Z,42.805,6.029,13.3046,4.60155,2470.717,2023-8-03T11:47:31Z
2023-08-03T09:48:15Z,42.805,6.029,13.3039,4.60177,2470.67,2023-8-03T11:50:34Z
2023-08-03T09:51:18Z,42.805,6.029,13.3048,4.60145,2470.717,2023-8-03T11:53:37Z
2023-08-03T09:54:22Z,42.805,6.029,13.3038,4.60153,2470.656,2023-8-03T11:56:40Z
2023-08-03T09:57:25Z,42.805,6.029,13.3045,4.60145,2470.707,2023-8-03T11:59:43Z
2023-08-03T10:00:28Z,42.805,6.029,13.3058,4.60193,2470.707,2023-8-03T12:02:46Z
2023-08-03T10:03:31Z,42.805,6.029,13.3041,4.60144,2470.707,2023-8-03T12:05:49Z
2023-08-03T10:06:34Z,42.805,6.029,13.3046,4.60174,2470.684,2023-8-03T12:08:52Z
2023-08-03T10:09:37Z,42.805,6.029,13.3051,4.60162,2470.73,2023-8-03T12:11:55Z
2023-08-03T10:12:40Z,42.805,6.029,13.3059,4.60188,2470.693,2023-8-03T12:14:58Z
2023-08-03T10:15:43Z,42.805,6.029,13.3090,4.60189,2470.693,2023-8-03T12:18:01Z
2023-08-03T10:18:46Z,42.805,6.029,13.3038,4.60151,2470.693,2023-8-03T12:21:04Z
2023-08-03T10:21:49Z,42.805,6.029,13.3048,4.60140,2470.707,2023-8-03T12:24:08Z
2023-08-03T10:24:52Z,42.805,6.029,13.3051,4.60167,2470.693,2023-8-03T12:27:11Z
2023-08-03T10:27:55Z,42.805,6.029,13.3055,4.60147,2470.717,2023-8-03T12:30:14Z
2023-08-03T10:30:57Z,42.805,6.029,13.3052,4.60150,2470.684,2023-8-03T12:33:15Z
2023-08-03T10:34:00Z,42.805,6.029,13.3039,4.60132,2470.646,2023-8-03T12:36:18Z
2023-08-03T10:37:03Z,42.805,6.029,13.3050,4.60144,2470.661,2023-8-03T12:39:21Z
2023-08-03T10:40:06Z,42.805,6.029,13.3052,4.60144,2470.684,2023-8-03T12:42:25Z
2023-08-03T10:43:09Z,42.805,6.029,13.3046,4.60134,2470.67,2023-8-03T12:45:28Z
2023-08-03T10:46:12Z,42.805,6.029,13.3046,4.60137,2470.67,2023-8-03T12:48:31Z
2023-08-03T10:49:16Z,42.805,6.029,13.3036,4.60142,2470.67,2023-8-03T12:51:34Z
2023-08-03T10:52:19Z,42.805,6.029,13.3036,4.60140,2470.661,2023-8-03T12:54:37Z
2023-08-03T10:55:22Z,42.805,6.029,13.3040,4.60174,2470.67,2023-8-03T12:57:40Z
2023-08-03T10:58:25Z,42.805,6.029,13.3037,4.60197,2470.646,2023-8-03T13:00:43Z
2023-08-03T11:01:28Z,42.805,6.029,13.3052,4.60120,2470.67,2023-8-03T13:03:46Z
2023-08-03T11:04:31Z,42.805,6.029,13.3062,4.60168,2470.67,2023-8-03T13:06:49Z
2023-08-03T11:07:34Z,42.805,6.029,13.3054,4.60157,2470.637,2023-8-03T13:09:52Z
2023-08-03T11:10:37Z,42.805,6.029,13.3045,4.60177,2470.684,2023-8-03T13:12:55Z
2023-08-03T11:13:40Z,42.805,6.029,13.3039,4.60147,2470.637,2023-8-03T13:15:58Z
2023-08-03T11:16:43Z,42.805,6.029,13.3041,4.60173,2470.684,2023-8-03T13:19:02Z
2023-08-03T11:19:46Z,42.805,6.029,13.3036,4.60129,2470.661,2023-8-03T13:22:05Z
2023-08-03T11:22:49Z,42.805,6.029,13.3042,4.60115,2470.661,2023-8-03T13:25:08Z
2023-08-03T11:25:52Z,42.805,6.029,13.3041,4.60144,2470.646,2023-8-03T13:28:11Z
2023-08-03T11:28:56Z,42.805,6.029,13.3050,4.60157,2470.646,2023-8-03T13:31:14Z
2023-08-03T11:31:59Z,42.805,6.029,13.3035,4.60147,2470.646,2023-8-03T13:34:17Z
2023-08-03T11:35:02Z,42.805,6.029,13.3038,4.60131,2470.646,2023-8-03T13:37:20Z
2023-08-03T11:38:05Z,42.805,6.029,13.3057,4.60152,2470.661,2023-8-03T13:40:23Z
2023-08-03T11:41:08Z,42.805,6.029,13.3039,4.60152,2470.624,2023-8-03T13:43:26Z
2023-08-03T11:44:11Z,42.805,6.029,13.3059,4.60165,2470.646,2023-8-03T13:46:29Z
2023-08-03T11:47:14Z,42.805,6.029,13.3067,4.60162,2470.624,2023-8-03T13:49:32Z
2023-08-03T11:50:17Z,42.805,6.029,13.3060,4.60155,2470.637,2023-8-03T13:52:35Z
2023-08-03T11:53:20Z,42.805,6.029,13.3053,4.60138,2470.624,2023-8-03T13:55:38Z
2023-08-03T11:56:23Z,42.805,6.029,13.3038,4.60178,2470.637,2023-8-03T13:58:42Z
2023-08-03T11:59:26Z,42.805,6.029,13.3052,4.60149,2470.6,2023-8-03T14:01:45Z
2023-08-03T12:02:29Z,42.805,6.029,13.3036,4.60127,2470.614,2023-8-03T14:04:48Z
2023-08-03T12:05:33Z,42.805,6.029,13.3046,4.60143,2470.646,2023-8-03T14:07:51Z
2023-08-03T12:08:36Z,42.805,6.029,13.3060,4.60132,2470.577,2023-8-03T14:10:54Z
2023-08-03T12:11:39Z,42.805,6.029,13.3041,4.60169,2470.624,2023-8-03T14:13:57Z
2023-08-03T12:14:42Z,42.805,6.029,13.3046,4.60178,2470.624,2023-8-03T14:17:00Z
2023-08-03T12:17:45Z,42.805,6.029,13.3053,4.60176,2470.624,2023-8-03T14:20:03Z
2023-08-03T12:20:48Z,42.805,6.029,13.3049,4.60157,2470.624,2023-8-03T14:23:06Z
2023-08-03T12:23:51Z,42.805,6.029,13.3049,4.60145,2470.624,2023-8-03T14:26:09Z
2023-08-03T12:26:54Z,42.805,6.029,13.3043,4.60161,2470.6,2023-8-03T14:29:12Z
2023-08-03T12:29:57Z,42.805,6.029,13.3037,4.60235,2470.586,2023-8-03T14:32:15Z
2023-08-03T12:33:00Z,42.805,6.029,13.3043,4.60160,2470.614,2023-8-03T14:35:19Z
2023-08-03T12:36:03Z,42.805,6.029,13.3042,4.60166,2470.591,2023-8-03T14:38:22Z
2023-08-03T12:39:06Z,42.805,6.029,13.3054,4.60194,2470.624,2023-8-03T14:41:25Z
2023-08-03T12:42:09Z,42.805,6.029,13.3077,4.60148,2470.577,2023-8-03T14:44:28Z
2023-08-03T12:45:13Z,42.805,6.029,13.3056,4.60160,2470.553,2023-8-03T14:47:31Z
2023-08-03T12:48:16Z,42.805,6.029,13.3076,4.60200,2470.614,2023-8-03T14:50:34Z
2023-08-03T12:51:19Z,42.805,6.029,13.3054,4.60145,2470.577,2023-8-03T14:53:37Z
2023-08-03T12:54:22Z,42.805,6.029,13.3048,4.60147,2470.6,2023-8-03T14:56:40Z
2023-08-03T12:57:25Z,42.805,6.029,13.3056,4.60202,2470.567,2023-8-03T14:59:43Z
2023-08-03T13:00:28Z,42.805,6.029,13.3055,4.60188,2470.614,2023-8-03T15:02:46Z
2023-08-03T13:03:31Z,42.805,6.029,13.3041,4.60152,2470.614,2023-8-03T15:05:49Z
2023-08-03T13:06:34Z,42.805,6.029,13.3053,4.60172,2470.553,2023-8-03T15:08:52Z
2023-08-03T13:09:37Z,42.805,6.029,13.3041,4.60157,2470.567,2023-8-03T15:11:55Z
2023-08-03T13:12:40Z,42.805,6.029,13.3048,4.60152,2470.577,2023-8-03T15:14:59Z
2023-08-03T13:15:43Z,42.805,6.029,13.3046,4.60171,2470.577,2023-8-03T15:18:02Z
2023-08-03T13:18:46Z,42.805,6.029,13.3062,4.60164,2470.553,2023-8-03T15:21:05Z
2023-08-03T13:21:49Z,42.805,6.029,13.3066,4.60150,2470.544,2023-8-03T15:24:08Z
2023-08-03T13:24:53Z,42.805,6.029,13.3056,4.60166,2470.539,2023-8-03T15:27:11Z
2023-08-03T13:27:56Z,42.805,6.029,13.3053,4.60197,2470.544,2023-8-03T15:30:14Z
2023-08-03T13:30:59Z,42.805,6.029,13.3062,4.60162,2470.591,2023-8-03T15:33:17Z
2023-08-03T13:34:02Z,42.805,6.029,13.3051,4.60179,2470.577,2023-8-03T15:36:20Z
2023-08-03T13:37:05Z,42.805,6.029,13.3060,4.60144,2470.591,2023-8-03T15:39:23Z
2023-08-03T13:40:08Z,42.805,6.029,13.3041,4.60147,2470.577,2023-8-03T15:42:26Z
2023-08-03T13:43:11Z,42.805,6.029,13.3050,4.60179,2470.553,2023-8-03T15:45:29Z
2023-08-03T13:46:14Z,42.805,6.029,13.3052,4.60178,2470.567,2023-8-03T15:48:32Z
2023-08-03T13:49:17Z,42.805,6.029,13.3061,4.60200,2470.553,2023-8-03T15:51:36Z
2023-08-03T13:52:20Z,42.805,6.029,13.3048,4.60154,2470.553,2023-8-03T15:54:39Z
2023-08-03T13:55:23Z,42.805,6.029,13.3067,4.60150,2470.53,2023-8-03T15:57:42Z
2023-08-03T13:58:26Z,42.805,6.029,13.3048,4.60156,2470.53,2023-8-03T16:00:45Z
2023-08-03T14:01:30Z,42.805,6.029,13.3058,4.60135,2470.553,2023-8-03T16:03:48Z
2023-08-03T14:04:33Z,42.805,6.029,13.3068,4.60162,2470.507,2023-8-03T16:06:51Z
2023-08-03T14:07:36Z,42.805,6.029,13.3056,4.60203,2470.52,2023-8-03T16:09:54Z
2023-08-03T14:10:39Z,42.805,6.029,13.3045,4.60175,2470.567,2023-8-03T16:12:57Z
2023-08-03T14:13:42Z,42.805,6.029,13.3063,4.60151,2470.577,2023-8-03T16:16:00Z
2023-08-03T14:16:45Z,42.805,6.029,13.3066,4.60149,2470.53,2023-8-03T16:19:03Z
2023-08-03T14:19:48Z,42.805,6.029,13.3074,4.60127,2470.53,2023-8-03T16:22:06Z
2023-08-03T14:22:51Z,42.805,6.029,13.3061,4.60157,2470.507,2023-8-03T16:25:09Z
2023-08-03T14:25:54Z,42.805,6.029,13.3043,4.60180,2470.553,2023-8-03T16:28:12Z
2023-08-03T14:28:57Z,42.805,6.029,13.3048,4.60138,2470.53,2023-8-03T16:31:16Z
2023-08-03T14:32:00Z,42.805,6.029,13.3067,4.60154,2470.577,2023-8-03T16:34:18Z
2023-08-03T14:35:03Z,42.805,6.029,13.3066,4.60178,2470.53,2023-8-03T16:37:21Z
2023-08-03T14:38:06Z,42.805,6.029,13.3067,4.60164,2470.53,2023-8-03T16:40:24Z
2023-08-03T14:41:09Z,42.805,6.029,13.3061,4.60162,2470.53,2023-8-03T16:43:27Z
2023-08-03T14:44:12Z,42.805,6.029,13.3051,4.60185,2470.567,2023-8-03T16:46:30Z
2023-08-03T14:47:15Z,42.805,6.029,13.3049,4.60152,2470.493,2023-8-03T16:49:33Z
2023-08-03T14:50:18Z,42.805,6.029,13.3046,4.60173,2470.507,2023-8-03T16:52:36Z
2023-08-03T14:53:21Z,42.805,6.029,13.3050,4.60139,2470.544,2023-8-03T16:55:40Z
2023-08-03T14:56:24Z,42.805,6.029,13.3045,4.60177,2470.507,2023-8-03T16:58:43Z
2023-08-03T14:59:27Z,42.805,6.029,13.3051,4.60188,2470.553,2023-8-03T17:01:46Z
2023-08-03T15:02:30Z,42.805,6.029,13.3054,4.60185,2470.52,2023-8-03T17:04:49Z
2023-08-03T15:05:34Z,42.805,6.029,13.3056,4.60170,2470.553,2023-8-03T17:07:52Z
2023-08-03T15:08:37Z,42.805,6.029,13.3069,4.60179,2470.544,2023-8-03T17:10:55Z
2023-08-03T15:11:40Z,42.805,6.029,13.3057,4.60174,2470.53,2023-8-03T17:13:58Z